| time (UTC) | temp F | wind direction | speed MPH | gust MPH | rain 1hr in | rain 24hr in | rain mn in | humidity % | barometer mb |
| 20260504190523 | 77 | 155 | 4.0 | 13.0 | 0.00 | 0.00 | 0.00 | 42 | 1038.0 |
| 20260504190012 | 77 | 88 | 3.0 | 9.0 | 0.00 | 0.00 | 0.00 | 44 | 1038.0 |
| 20260504185507 | 76 | 172 | 4.0 | 10.0 | 0.00 | 0.00 | 0.00 | 44 | 1038.0 |
| 20260504185227 | 76 | 282 | 4.0 | 10.0 | 0.00 | 0.00 | 0.00 | 43 | 1038.0 |
| 20260504184724 | 76 | 144 | 3.0 | 8.0 | 0.00 | 0.00 | 0.00 | 46 | 1038.0 |
| 20260504184221 | 76 | 200 | 4.0 | 9.0 | 0.00 | 0.00 | 0.00 | 48 | 1038.0 |
| 20260504183447 | 75 | 190 | 4.0 | 9.0 | 0.00 | 0.00 | 0.00 | 48 | 1038.4 |
| 20260504182941 | 74 | 185 | 3.0 | 10.0 | 0.00 | 0.00 | 0.00 | 45 | 1038.4 |
| 20260504182435 | 74 | 165 | 3.0 | 10.0 | 0.00 | 0.00 | 0.00 | 45 | 1038.4 |
| 20260504181925 | 74 | 246 | 4.0 | 12.0 | 0.00 | 0.00 | 0.00 | 46 | 1038.6 |
| 20260504181424 | 74 | 253 | 4.0 | 12.0 | 0.00 | 0.00 | 0.00 | 44 | 1038.6 |
| 20260504180914 | 75 | 154 | 3.0 | 13.0 | 0.00 | 0.00 | 0.00 | 44 | 1038.6 |
| 20260504180412 | 74 | 150 | 3.0 | 13.0 | 0.00 | 0.00 | 0.00 | 49 | 1038.9 |
| 20260504175906 | 74 | 176 | 3.0 | 6.0 | 0.00 | 0.00 | 0.00 | 46 | 1038.9 |
| 20260504175400 | 75 | 135 | 3.0 | 8.0 | 0.00 | 0.00 | 0.00 | 47 | 1038.9 |
| 20260504174854 | 75 | 241 | 3.0 | 10.0 | 0.00 | 0.00 | 0.00 | 47 | 1038.9 |
| 20260504174343 | 74 | 209 | 3.0 | 10.0 | 0.00 | 0.00 | 0.00 | 45 | 1038.9 |
| 20260504173841 | 74 | 161 | 3.0 | 8.0 | 0.00 | 0.00 | 0.00 | 49 | 1038.9 |
| 20260504173335 | 74 | 243 | 3.0 | 8.0 | 0.00 | 0.00 | 0.00 | 48 | 1039.1 |
| 20260504172829 | 73 | 178 | 3.0 | 7.0 | 0.00 | 0.00 | 0.00 | 46 | 1039.1 |
| 20260504172323 | 73 | 211 | 3.0 | 9.0 | 0.00 | 0.00 | 0.00 | 45 | 1039.1 |
| 20260504171812 | 73 | 260 | 4.0 | 11.0 | 0.00 | 0.00 | 0.00 | 47 | 1039.3 |
| 20260504171312 | 73 | 151 | 3.0 | 11.0 | 0.00 | 0.00 | 0.00 | 48 | 1039.3 |
| 20260504170801 | 72 | 150 | 4.0 | 9.0 | 0.00 | 0.00 | 0.00 | 46 | 1039.3 |
| 20260504170742 | 71 | 250 | 4.0 | 9.0 | 0.00 | 0.00 | 0.00 | 49 | 1039.7 |
| 20260504160147 | 70 | 172 | 3.0 | 8.0 | 0.00 | 0.00 | 0.00 | 47 | 1040.3 |
| 20260504151116 | 68 | 198 | 3.0 | 7.0 | 0.00 | 0.00 | 0.00 | 49 | 1040.7 |
| 20260504150618 | 67 | 221 | 3.0 | 7.0 | 0.00 | 0.00 | 0.00 | 51 | 1040.7 |
| 20260504150117 | 67 | 159 | 3.0 | 8.0 | 0.00 | 0.00 | 0.00 | 51 | 1040.8 |
| 20260504141321 | 64 | 205 | 4.0 | 12.0 | 0.00 | 0.00 | 0.00 | 53 | 1041.2 |
| 20260504140818 | 64 | 158 | 4.0 | 12.0 | 0.00 | 0.00 | 0.00 | 52 | 1041.3 |
| 20260504130539 | 60 | 195 | 4.0 | 13.0 | 0.00 | 0.00 | 0.00 | 53 | 1041.4 |
| 20260504110557 | 44 | 281 | 0.0 | 0.0 | 0.00 | 0.00 | 0.00 | 89 | 1041.9 |
| 20260504100224 | 43 | 281 | 0.0 | 0.0 | 0.00 | 0.00 | 0.00 | 91 | 1042.1 |
| 20260504090112 | 42 | 281 | 0.0 | 0.0 | 0.00 | 0.00 | 0.00 | 92 | 1042.3 |
| 20260504081519 | 42 | 281 | 0.0 | 1.0 | 0.00 | 0.00 | 0.00 | 90 | 1042.3 |
| 20260504081003 | 43 | 281 | 0.0 | 1.0 | 0.00 | 0.00 | 0.00 | 90 | 1042.3 |
| 20260504080728 | 43 | 281 | 0.0 | 0.0 | 0.00 | 0.00 | 0.00 | 90 | 1042.3 |
| 20260504070354 | 42 | 281 | 0.0 | 1.0 | 0.00 | 0.00 | 0.00 | 91 | 1042.5 |
| 20260504060238 | 38 | 281 | 0.0 | 0.0 | 0.00 | 0.00 | 0.00 | 93 | 1042.8 |
| 20260504050731 | 36 | 281 | 0.0 | 1.0 | 0.00 | 0.00 | 0.00 | 92 | 1043.1 |
| 20260504050232 | 35 | 281 | 0.0 | 1.0 | 0.00 | 0.00 | 0.00 | 92 | 1043.1 |
| 20260504045725 | 35 | 281 | 0.0 | 0.0 | 0.00 | 0.00 | 0.00 | 91 | 1043.1 |
| 20260504045213 | 35 | 281 | 0.0 | 0.0 | 0.00 | 0.00 | 0.00 | 90 | 1043.1 |
| 20260504044711 | 35 | 281 | 0.0 | 0.0 | 0.00 | 0.00 | 0.00 | 90 | 1043.3 |
| 20260504044430 | 36 | 281 | 0.0 | 0.0 | 0.00 | 0.00 | 0.00 | 90 | 1043.3 |
| 20260504043711 | 36 | 281 | 0.0 | 0.0 | 0.00 | 0.00 | 0.00 | 90 | 1043.3 |
| 20260504043212 | 36 | 281 | 0.0 | 0.0 | 0.00 | 0.00 | 0.00 | 90 | 1043.2 |
| 20260504042711 | 37 | 281 | 0.0 | 0.0 | 0.00 | 0.00 | 0.00 | 90 | 1043.2 |
| 20260504042442 | 37 | 281 | 0.0 | 0.0 | 0.00 | 0.00 | 0.00 | 90 | 1043.2 |
| 20260504041715 | 36 | 281 | 0.0 | 0.0 | 0.00 | 0.00 | 0.00 | 90 | 1043.3 |
| 20260504041216 | 37 | 281 | 0.0 | 0.0 | 0.00 | 0.00 | 0.00 | 89 | 1043.3 |
| 20260504040708 | 37 | 281 | 0.0 | 0.0 | 0.00 | 0.00 | 0.00 | 89 | 1043.3 |
| 20260504040414 | 37 | 281 | 0.0 | 0.0 | 0.00 | 0.00 | 0.00 | 89 | 1043.3 |
| 20260504035645 | 37 | 281 | 0.0 | 0.0 | 0.00 | 0.00 | 0.00 | 89 | 1043.3 |
| 20260504035132 | 37 | 281 | 0.0 | 1.0 | 0.00 | 0.00 | 0.00 | 89 | 1043.3 |
| 20260504034621 | 37 | 281 | 0.0 | 1.0 | 0.00 | 0.00 | 0.00 | 89 | 1042.9 |
| 20260504034110 | 37 | 250 | 0.0 | 0.0 | 0.00 | 0.00 | 0.00 | 89 | 1042.9 |
| 20260504033608 | 37 | 250 | 0.0 | 0.0 | 0.00 | 0.00 | 0.00 | 88 | 1043.0 |
| 20260504033326 | 38 | 250 | 0.0 | 0.0 | 0.00 | 0.00 | 0.00 | 87 | 1043.0 |
| 20260504032556 | 38 | 250 | 0.0 | 0.0 | 0.00 | 0.00 | 0.00 | 86 | 1043.0 |
| 20260504032049 | 38 | 250 | 0.0 | 0.0 | 0.00 | 0.00 | 0.00 | 86 | 1042.9 |
| 20260504031802 | 38 | 250 | 0.0 | 0.0 | 0.00 | 0.00 | 0.00 | 86 | 1042.9 |
| 20260504031301 | 38 | 250 | 0.0 | 0.0 | 0.00 | 0.00 | 0.00 | 85 | 1042.9 |
| 20260504030530 | 38 | 250 | 0.0 | 0.0 | 0.00 | 0.00 | 0.00 | 84 | 1042.9 |
| 20260504030024 | 39 | 250 | 0.0 | 0.0 | 0.00 | 0.00 | 0.00 | 84 | 1042.9 |
| 20260504025511 | 39 | 250 | 0.0 | 0.0 | 0.00 | 0.00 | 0.00 | 83 | 1042.9 |
| 20260504025012 | 39 | 250 | 0.0 | 0.0 | 0.00 | 0.00 | 0.00 | 83 | 1042.9 |
| 20260504024507 | 40 | 250 | 0.0 | 0.0 | 0.00 | 0.00 | 0.00 | 84 | 1042.9 |
| 20260504023956 | 40 | 250 | 0.0 | 0.0 | 0.00 | 0.00 | 0.00 | 84 | 1042.9 |
| 20260504023454 | 40 | 250 | 0.0 | 0.0 | 0.00 | 0.00 | 0.00 | 84 | 1042.8 |
| 20260504022949 | 40 | 250 | 0.0 | 0.0 | 0.00 | 0.00 | 0.00 | 82 | 1042.8 |
| 20260504022705 | 40 | 250 | 0.0 | 0.0 | 0.00 | 0.00 | 0.00 | 82 | 1042.8 |
| 20260504022204 | 41 | 250 | 0.0 | 0.0 | 0.00 | 0.00 | 0.00 | 82 | 1042.7 |
| 20260504021431 | 41 | 250 | 0.0 | 0.0 | 0.00 | 0.00 | 0.00 | 82 | 1042.7 |
| 20260504020925 | 41 | 250 | 0.0 | 0.0 | 0.00 | 0.00 | 0.00 | 82 | 1042.7 |
| 20260504020410 | 42 | 250 | 0.0 | 0.0 | 0.00 | 0.00 | 0.00 | 81 | 1042.4 |
| 20260504015913 | 42 | 250 | 0.0 | 0.0 | 0.00 | 0.00 | 0.00 | 79 | 1042.4 |
| 20260504015630 | 42 | 250 | 0.0 | 0.0 | 0.00 | 0.00 | 0.00 | 80 | 1042.4 |
| 20260504014901 | 42 | 250 | 0.0 | 0.0 | 0.00 | 0.00 | 0.00 | 77 | 1042.6 |
| 20260504014354 | 42 | 250 | 0.0 | 0.0 | 0.00 | 0.00 | 0.00 | 77 | 1042.6 |
| 20260504013849 | 42 | 250 | 0.0 | 0.0 | 0.00 | 0.00 | 0.00 | 77 | 1042.6 |
| 20260504013343 | 43 | 250 | 0.0 | 0.0 | 0.00 | 0.00 | 0.00 | 73 | 1042.3 |
| 20260504012832 | 43 | 250 | 0.0 | 0.0 | 0.00 | 0.00 | 0.00 | 73 | 1042.3 |
| 20260504012549 | 43 | 250 | 0.0 | 0.0 | 0.00 | 0.00 | 0.00 | 72 | 1042.3 |
| 20260504011817 | 44 | 250 | 0.0 | 0.0 | 0.00 | 0.00 | 0.00 | 72 | 1042.3 |
| 20260504011311 | 44 | 250 | 0.0 | 0.0 | 0.00 | 0.00 | 0.00 | 72 | 1042.3 |
| 20260504010813 | 45 | 250 | 0.0 | 0.0 | 0.00 | 0.00 | 0.00 | 71 | 1042.3 |
| 20260504010306 | 45 | 250 | 0.0 | 0.0 | 0.00 | 0.00 | 0.00 | 69 | 1042.3 |
| 20260504005801 | 45 | 250 | 0.0 | 0.0 | 0.00 | 0.00 | 0.00 | 66 | 1042.3 |
| 20260504005733 | 46 | 250 | 0.0 | 0.0 | 0.00 | 0.00 | 0.00 | 67 | 1042.3 |
| 20260504004749 | 47 | 250 | 0.0 | 0.0 | 0.00 | 0.00 | 0.00 | 67 | 1042.3 |
| 20260504004236 | 48 | 250 | 0.0 | 0.0 | 0.00 | 0.00 | 0.00 | 67 | 1042.3 |
| 20260504003737 | 48 | 250 | 0.0 | 0.0 | 0.00 | 0.00 | 0.00 | 66 | 1042.3 |
| 20260504003231 | 49 | 250 | 0.0 | 0.0 | 0.00 | 0.00 | 0.00 | 60 | 1042.2 |
| 20260504002725 | 50 | 250 | 0.0 | 0.0 | 0.00 | 0.00 | 0.00 | 58 | 1042.2 |
| 20260504002214 | 51 | 250 | 0.0 | 0.0 | 0.00 | 0.00 | 0.00 | 58 | 1042.2 |
| 20260504001927 | 51 | 250 | 0.0 | 0.0 | 0.00 | 0.00 | 0.00 | 58 | 1042.2 |
| 20260504001206 | 52 | 250 | 0.0 | 0.0 | 0.00 | 0.00 | 0.00 | 53 | 1042.2 |
| 20260504000920 | 53 | 250 | 0.0 | 2.0 | 0.00 | 0.00 | 0.00 | 53 | 1042.2 |
| 20260504000154 | 54 | 250 | 0.0 | 2.0 | 0.00 | 0.00 | 0.00 | 50 | 1042.1 |
| 20260503235648 | 55 | 241 | 0.0 | 1.0 | 0.00 | 0.00 | 0.00 | 50 | 1042.1 |
| 20260503235142 | 56 | 241 | 0.0 | 1.0 | 0.00 | 0.00 | 0.00 | 48 | 1042.1 |
| 20260503234636 | 56 | 240 | 0.0 | 1.0 | 0.00 | 0.00 | 0.00 | 45 | 1041.8 |
| 20260503234212 | 57 | 271 | 0.0 | 1.0 | 0.00 | 0.00 | 0.00 | 43 | 1041.8 |
| 20260503233114 | 58 | 229 | 0.0 | 5.0 | 0.00 | 0.00 | 0.00 | 42 | 1041.8 |
| 20260503232613 | 58 | 275 | 1.0 | 5.0 | 0.00 | 0.00 | 0.00 | 42 | 1041.8 |
| 20260503232106 | 59 | 94 | 1.0 | 4.0 | 0.00 | 0.00 | 0.00 | 42 | 1041.7 |
| 20260503231600 | 60 | 277 | 1.0 | 6.0 | 0.00 | 0.00 | 0.00 | 40 | 1041.7 |
| 20260503231312 | 60 | 252 | 2.0 | 10.0 | 0.00 | 0.00 | 0.00 | 40 | 1041.7 |
| 20260503230548 | 60 | 227 | 2.0 | 10.0 | 0.00 | 0.00 | 0.00 | 39 | 1041.8 |
| 20260503230042 | 60 | 161 | 2.0 | 6.0 | 0.00 | 0.00 | 0.00 | 40 | 1041.8 |
| 20260503225532 | 61 | 232 | 2.0 | 6.0 | 0.00 | 0.00 | 0.00 | 39 | 1041.8 |
| 20260503225030 | 61 | 262 | 2.0 | 6.0 | 0.00 | 0.00 | 0.00 | 37 | 1041.6 |
| 20260503224744 | 62 | 240 | 1.0 | 6.0 | 0.00 | 0.00 | 0.00 | 37 | 1041.6 |
| 20260503224237 | 62 | 316 | 1.0 | 5.0 | 0.00 | 0.00 | 0.00 | 38 | 1041.6 |
| 20260503223555 | 62 | 116 | 2.0 | 5.0 | 0.00 | 0.00 | 0.00 | 37 | 1041.7 |
| 20260503222501 | 62 | 292 | 2.0 | 7.0 | 0.00 | 0.00 | 0.00 | 36 | 1041.7 |
| 20260503221954 | 62 | 270 | 3.0 | 11.0 | 0.00 | 0.00 | 0.00 | 37 | 1041.8 |
| 20260503221711 | 62 | 217 | 4.0 | 11.0 | 0.00 | 0.00 | 0.00 | 37 | 1041.8 |
| 20260503220942 | 62 | 274 | 3.0 | 9.0 | 0.00 | 0.00 | 0.00 | 36 | 1041.8 |
| 20260503220436 | 62 | 205 | 3.0 | 10.0 | 0.00 | 0.00 | 0.00 | 38 | 1041.9 |
| 20260503215931 | 62 | 279 | 3.0 | 10.0 | 0.00 | 0.00 | 0.00 | 37 | 1041.9 |
| 20260503215421 | 62 | 290 | 4.0 | 11.0 | 0.00 | 0.00 | 0.00 | 37 | 1041.9 |
| 20260503214918 | 62 | 251 | 3.0 | 11.0 | 0.00 | 0.00 | 0.00 | 37 | 1041.9 |
| 20260503214412 | 62 | 335 | 3.0 | 7.0 | 0.00 | 0.00 | 0.00 | 36 | 1041.9 |
| 20260503214132 | 62 | 267 | 3.0 | 8.0 | 0.00 | 0.00 | 0.00 | 36 | 1041.9 |
| 20260503213400 | 62 | 234 | 4.0 | 12.0 | 0.00 | 0.00 | 0.00 | 38 | 1041.8 |
| 20260503212855 | 62 | 260 | 4.0 | 12.0 | 0.00 | 0.00 | 0.00 | 36 | 1041.8 |
| 20260503212348 | 62 | 197 | 3.0 | 13.0 | 0.00 | 0.00 | 0.00 | 36 | 1041.8 |
| 20260503211842 | 62 | 238 | 4.0 | 12.0 | 0.00 | 0.00 | 0.00 | 38 | 1041.8 |
| 20260503211341 | 62 | 307 | 4.0 | 13.0 | 0.00 | 0.00 | 0.00 | 37 | 1041.8 |
| 20260503210841 | 62 | 236 | 4.0 | 13.0 | 0.00 | 0.00 | 0.00 | 37 | 1041.8 |
| 20260503210341 | 62 | 245 | 4.0 | 13.0 | 0.00 | 0.00 | 0.00 | 38 | 1041.8 |
| 20260503205841 | 62 | 122 | 4.0 | 12.0 | 0.00 | 0.00 | 0.00 | 39 | 1041.8 |
| 20260503205341 | 62 | 205 | 3.0 | 9.0 | 0.00 | 0.00 | 0.00 | 37 | 1041.8 |
| 20260503204840 | 62 | 267 | 4.0 | 13.0 | 0.00 | 0.00 | 0.00 | 38 | 1041.8 |
| 20260503204344 | 62 | 84 | 4.0 | 13.0 | 0.00 | 0.00 | 0.00 | 38 | 1041.8 |
| 20260503203844 | 62 | 239 | 3.0 | 10.0 | 0.00 | 0.00 | 0.00 | 37 | 1041.8 |
| 20260503203338 | 62 | 224 | 3.0 | 10.0 | 0.00 | 0.00 | 0.00 | 41 | 1042.0 |
| 20260503203046 | 62 | 223 | 3.0 | 6.0 | 0.00 | 0.00 | 0.00 | 38 | 1042.0 |
| 20260503202314 | 62 | 71 | 3.0 | 11.0 | 0.00 | 0.00 | 0.00 | 38 | 1042.0 |
| 20260503201807 | 62 | 166 | 2.0 | 11.0 | 0.00 | 0.00 | 0.00 | 38 | 1042.1 |
| 20260503201254 | 62 | 261 | 3.0 | 8.0 | 0.00 | 0.00 | 0.00 | 38 | 1042.1 |
| 20260503200753 | 62 | 39 | 4.0 | 11.0 | 0.00 | 0.00 | 0.00 | 39 | 1042.1 |
| 20260503200247 | 62 | 65 | 3.0 | 11.0 | 0.00 | 0.00 | 0.00 | 38 | 1042.3 |
| 20260503195742 | 62 | 218 | 2.0 | 9.0 | 0.00 | 0.00 | 0.00 | 40 | 1042.3 |
| 20260503195236 | 61 | 108 | 2.0 | 9.0 | 0.00 | 0.00 | 0.00 | 39 | 1042.3 |
| 20260503194726 | 61 | 49 | 3.0 | 8.0 | 0.00 | 0.00 | 0.00 | 38 | 1042.7 |
| 20260503194224 | 62 | 271 | 4.0 | 10.0 | 0.00 | 0.00 | 0.00 | 39 | 1042.7 |
| 20260503193717 | 62 | 348 | 3.0 | 10.0 | 0.00 | 0.00 | 0.00 | 38 | 1042.7 |
| 20260503193211 | 61 | 238 | 3.0 | 9.0 | 0.00 | 0.00 | 0.00 | 39 | 1042.8 |
| 20260503192705 | 61 | 224 | 4.0 | 13.0 | 0.00 | 0.00 | 0.00 | 38 | 1042.8 |
| 20260503192159 | 61 | 248 | 4.0 | 13.0 | 0.00 | 0.00 | 0.00 | 38 | 1042.8 |
| 20260503191654 | 61 | 236 | 3.0 | 13.0 | 0.00 | 0.00 | 0.00 | 39 | 1042.9 |
| 20260503191142 | 60 | 79 | 3.0 | 13.0 | 0.00 | 0.00 | 0.00 | 38 | 1042.9 |